CW8306 Weather Reports


Display with metric or nautical units.
time (UTC)temp
F
wind
direction
speed
MPH
gust
MPH
rain 1hr
in
rain 24hr
in
rain mn
in
humidity
%
barometer
mb
20260901044924 61 236 1.0 2.0 0.00 0.44 0.44 82 1008.1
20260901044421 61 293 1.0 3.0 0.00 0.44 0.44 82 1008.0
20260901043916 61 276 1.0 3.0 0.00 0.44 0.44 82 1008.1
20260901043412 61 212 0.0 1.0 0.00 0.44 0.44 81 1007.8
20260901042906 61 349 1.0 2.0 0.00 0.44 0.44 81 1008.1
20260901042401 61 221 2.0 3.0 0.00 0.44 0.44 81 1007.9
20260901041857 61 211 0.0 3.0 0.00 0.44 0.44 81 1007.9
20260901041351 61 213 0.0 1.0 0.00 0.44 0.44 80 1008.1
20260901040846 61 173 0.0 1.0 0.00 0.44 0.44 80 1007.8
20260901040345 61 231 0.0 2.0 0.00 0.44 0.44 80 1007.8
20260901035844 60 205 1.0 2.0 0.00 0.44 0.44 80 1007.7
20260901035343 61 210 0.0 1.0 0.00 0.44 0.44 80 1007.7
20260901034842 61 216 1.0 3.0 0.00 0.44 0.44 80 1007.8
20260901034337 61 189 1.0 2.0 0.00 0.44 0.44 80 1007.6
20260901033837 61 206 0.0 2.0 0.00 0.44 0.44 80 1007.7
20260901033336 61 220 0.0 1.0 0.00 0.44 0.44 80 1007.9
20260901032835 61 198 0.0 2.0 0.00 0.44 0.44 79 1008.0
20260901032334 61 229 1.0 1.0 0.00 0.44 0.44 79 1007.9
20260901031830 61 211 0.0 2.0 0.00 0.44 0.44 78 1007.9
20260901031326 62 231 2.0 3.0 0.00 0.44 0.44 78 1007.8
20260901030825 62 283 3.0 3.0 0.00 0.44 0.44 77 1007.5
20260901030321 62 289 3.0 5.0 0.00 0.44 0.44 77 1007.6
20260901025820 62 232 2.0 3.0 0.00 0.44 0.44 77 1007.6
20260901025315 62 308 0.0 1.0 0.00 0.44 0.44 77 1007.5
20260901024810 62 243 1.0 2.0 0.00 0.44 0.44 77 1007.4
20260901024309 63 192 0.0 2.0 0.00 0.44 0.44 76 1007.5
20260901023807 63 276 3.0 5.0 0.00 0.44 0.44 75 1007.6
20260901023302 63 206 1.0 3.0 0.00 0.44 0.44 75 1007.4
20260901022757 63 191 1.0 5.0 0.00 0.44 0.44 74 1007.5
20260901022253 64 210 0.0 5.0 0.00 0.44 0.44 74 1007.2
20260901021748 64 232 1.0 2.0 0.00 0.44 0.44 73 1007.4
20260901021244 64 265 2.0 5.0 0.00 0.44 0.44 73 1007.4
20260901020739 64 282 1.0 3.0 0.00 0.44 0.44 72 1006.9
20260901020234 65 203 0.0 6.0 0.00 0.44 0.44 72 1007.4
20260901015729 65 282 3.0 10.0 0.00 0.44 0.44 71 1007.2
20260901015225 65 265 4.0 7.0 0.00 0.44 0.44 70 1006.7
20260901014724 65 310 4.0 10.0 0.00 0.44 0.44 69 1006.7
20260901014221 66 269 3.0 7.0 0.00 0.44 0.44 68 1006.6
20260901013716 66 204 2.0 11.0 0.00 0.44 0.44 67 1006.5
20260901013211 66 293 5.0 8.0 0.00 0.44 0.44 66 1006.4
20260901012706 67 222 5.0 7.0 0.00 0.44 0.44 65 1006.2
20260901012201 67 308 7.0 13.0 0.00 0.44 0.44 65 1006.0
20260901011657 68 276 3.0 9.0 0.00 0.44 0.44 67 1005.9
20260901011156 68 171 7.0 10.0 0.00 0.44 0.44 70 1005.9
20260901010651 68 199 5.0 9.0 0.00 0.44 0.44 74 1005.7
20260901010151 68 255 5.0 7.0 0.00 0.44 0.44 76 1005.4
20260901005644 67 311 6.0 10.0 0.00 0.44 0.44 77 1005.6
20260901005140 68 284 5.0 13.0 0.00 0.44 0.44 76 1005.4
20260901004639 70 268 7.0 10.0 0.00 0.44 0.44 72 1005.7
20260901004134 70 244 7.0 14.0 0.00 0.44 0.44 68 1005.3
20260901003629 71 259 4.0 11.0 0.00 0.44 0.44 67 1005.2
20260901003128 71 275 3.0 9.0 0.00 0.44 0.44 66 1004.8
20260901002628 72 269 7.0 11.0 0.00 0.44 0.44 65 1005.0
20260901002122 72 251 3.0 14.0 0.00 0.44 0.44 64 1004.9
20260901001617 72 290 8.0 11.0 0.00 0.44 0.44 64 1004.8
20260901001113 72 239 6.0 15.0 0.00 0.44 0.44 63 1004.6
20260901000608 73 235 2.0 14.0 0.00 0.44 0.44 63 1004.6
20260901000103 73 300 8.0 13.0 0.00 0.44 0.44 64 1004.3
20260831235556 74 278 6.0 13.0 0.00 0.44 0.44 61 1004.6
20260831235052 74 214 4.0 6.0 0.00 0.44 0.44 60 1004.0
20260831234546 74 117 3.0 11.0 0.00 0.44 0.44 60 1004.0
20260831234042 75 287 4.0 8.0 0.00 0.44 0.44 59 1004.1
20260831233537 75 187 3.0 11.0 0.00 0.44 0.44 59 1003.7
20260831233033 75 2 3.0 9.0 0.00 0.44 0.44 59 1003.8
20260831232528 75 268 4.0 8.0 0.00 0.44 0.44 58 1003.9
20260831232024 75 299 5.0 11.0 0.00 0.44 0.44 57 1003.8
20260831231520 75 333 5.0 7.0 0.00 0.44 0.44 57 1003.8
20260831231015 75 314 4.0 9.0 0.00 0.44 0.44 56 1003.8
20260831230510 75 204 4.0 6.0 0.00 0.44 0.44 55 1003.7
20260831230005 76 217 2.0 7.0 0.00 0.44 0.44 54 1003.7
20260831225501 76 285 2.0 6.0 0.00 0.44 0.44 53 1003.7
20260831225000 77 287 5.0 8.0 0.00 0.44 0.44 50 1003.6
20260831224455 77 277 2.0 7.0 0.00 0.44 0.44 50 1003.5
20260831223949 77 289 4.0 8.0 0.00 0.44 0.44 49 1003.5
20260831223445 77 213 2.0 9.0 0.00 0.44 0.44 48 1003.6
20260831222942 77 279 3.0 15.0 0.00 0.44 0.44 48 1003.5
20260831222437 77 212 3.0 9.0 0.00 0.44 0.44 48 1003.4
20260831221932 77 134 3.0 6.0 0.00 0.44 0.44 48 1003.1
20260831221428 77 212 1.0 9.0 0.00 0.44 0.44 48 1003.3
20260831220923 77 246 2.0 6.0 0.00 0.44 0.44 50 1003.0
20260831220418 77 226 3.0 6.0 0.00 0.44 0.44 48 1003.3
20260831215913 77 231 1.0 6.0 0.00 0.44 0.44 50 1003.1
20260831215409 77 251 1.0 6.0 0.00 0.44 0.44 50 1003.1
20260831214905 77 45 2.0 6.0 0.00 0.44 0.44 50 1003.2
20260831214403 77 154 1.0 5.0 0.00 0.44 0.44 50 1003.2
20260831213858 76 205 3.0 3.0 0.00 0.44 0.44 50 1003.4
20260831213354 77 206 1.0 6.0 0.00 0.44 0.44 50 1003.5
20260831212849 77 166 2.0 3.0 0.00 0.44 0.44 50 1003.6
20260831212346 77 233 2.0 6.0 0.00 0.44 0.44 49 1003.8
20260831211844 77 233 2.0 3.0 0.00 0.44 0.44 49 1003.6
20260831211345 77 335 2.0 6.0 0.00 0.44 0.44 49 1003.8
20260831210844 77 219 3.0 7.0 0.00 0.44 0.44 49 1003.7
20260831210340 77 82 5.0 8.0 0.00 0.44 0.44 49 1003.9
20260831205835 77 246 2.0 6.0 0.00 0.44 0.44 47 1003.9
20260831205332 77 254 3.0 8.0 0.00 0.44 0.44 47 1004.0
20260831204831 77 280 6.0 13.0 0.00 0.44 0.44 46 1004.1
20260831204330 77 112 1.0 5.0 0.00 0.44 0.44 47 1003.8
20260831203830 77 65 2.0 8.0 0.00 0.44 0.44 46 1004.0
20260831203325 77 139 1.0 3.0 0.00 0.44 0.44 46 1003.9
20260831202823 77 166 3.0 7.0 0.00 0.44 0.44 45 1004.0
20260831202319 77 192 3.0 7.0 0.00 0.44 0.44 45 1004.0
20260831201818 77 186 5.0 11.0 0.00 0.44 0.44 44 1004.1
20260831201317 77 131 3.0 6.0 0.00 0.44 0.44 44 1004.1
20260831200813 77 169 5.0 9.0 0.00 0.44 0.44 43 1004.3
20260831200308 77 239 3.0 8.0 0.00 0.44 0.44 43 1004.4
20260831195803 78 322 8.0 13.0 0.00 0.44 0.44 42 1004.6
20260831195259 78 213 3.0 3.0 0.00 0.44 0.44 43 1004.4
20260831194754 78 266 7.0 9.0 0.00 0.44 0.44 42 1004.3
20260831194249 78 210 3.0 9.0 0.00 0.44 0.44 43 1004.4
20260831193743 78 188 4.0 8.0 0.00 0.44 0.44 42 1004.4
20260831193238 79 161 5.0 8.0 0.00 0.44 0.44 42 1004.4
20260831192733 79 235 2.0 3.0 0.00 0.44 0.44 43 1004.8
20260831192228 78 70 4.0 7.0 0.00 0.44 0.44 43 1004.7
20260831191724 79 142 6.0 11.0 0.00 0.44 0.44 43 1004.9
20260831191220 79 202 2.0 6.0 0.00 0.44 0.44 44 1004.9
20260831190715 79 206 3.0 6.0 0.00 0.44 0.44 43 1004.7
20260831190215 80 200 2.0 7.0 0.00 0.44 0.44 43 1004.7
20260831185710 80 34 4.0 7.0 0.00 0.44 0.44 45 1004.9
20260831185205 79 195 2.0 7.0 0.00 0.44 0.44 46 1005.2
20260831184704 78 195 1.0 8.0 0.00 0.44 0.44 43 1005.3
20260831184201 78 132 7.0 11.0 0.00 0.44 0.44 46 1005.5
20260831183700 78 353 3.0 9.0 0.00 0.44 0.44 45 1005.4
20260831183200 78 313 3.0 9.0 0.00 0.44 0.44 46 1005.8
20260831182659 78 41 2.0 11.0 0.00 0.44 0.44 46 1005.8
20260831182155 78 136 5.0 8.0 0.00 0.44 0.44 46 1005.7
20260831181650 78 118 2.0 8.0 0.00 0.44 0.44 47 1005.6
20260831181149 77 151 2.0 9.0 0.00 0.44 0.44 49 1006.1
20260831180645 78 235 4.0 6.0 0.00 0.44 0.44 50 1006.3
20260831180140 77 226 4.0 8.0 0.00 0.44 0.44 49 1006.1
20260831175634 77 61 1.0 10.0 0.00 0.44 0.44 51 1006.3
20260831175131 78 76 5.0 13.0 0.00 0.44 0.44 51 1006.5
20260831174631 77 195 1.0 9.0 0.00 0.44 0.44 52 1006.6
20260831174126 77 325 1.0 5.0 0.00 0.44 0.44 53 1006.8
20260831173625 77 144 4.0 5.0 0.00 0.44 0.44 52 1006.9
20260831173121 77 106 1.0 7.0 0.00 0.44 0.44 52 1006.8
20260831172620 77 176 3.0 9.0 0.00 0.44 0.44 52 1006.8
20260831172120 77 152 3.0 5.0 0.00 0.44 0.44 52 1006.8
20260831171616 77 194 2.0 8.0 0.00 0.44 0.44 53 1007.0
20260831171113 76 157 3.0 8.0 0.00 0.44 0.44 56 1007.4
20260831170609 76 216 2.0 5.0 0.00 0.44 0.44 58 1007.5
20260831170106 76 186 4.0 6.0 0.00 0.44 0.44 58 1007.4
20260831165601 76 250 2.0 5.0 0.00 0.44 0.44 58 1007.4
20260831165058 75 166 1.0 5.0 0.00 0.44 0.44 62 1007.4
20260831164553 76 147 2.0 3.0 0.00 0.44 0.44 62 1007.5
20260831164049 75 213 0.0 3.0 0.00 0.44 0.44 66 1007.5
20260831163543 74 159 3.0 5.0 0.00 0.44 0.44 66 1007.7
20260831163039 73 30 2.0 5.0 0.00 0.44 0.44 66 1007.5
20260831162538 73 47 2.0 5.0 0.00 0.44 0.44 67 1007.6
20260831162036 73 208 1.0 5.0 0.00 0.44 0.44 68 1007.8
20260831161532 73 103 2.0 5.0 0.00 0.44 0.44 69 1007.8
20260831161029 72 219 1.0 3.0 0.00 0.44 0.44 71 1007.8
20260831160527 71 218 1.0 2.0 0.00 0.44 0.44 72 1007.9
20260831160024 70 199 2.0 6.0 0.00 0.44 0.44 73 1007.8
20260831155518 70 70 2.0 5.0 0.00 0.44 0.44 73 1007.8
20260831155013 70 235 3.0 5.0 0.00 0.44 0.44 74 1008.1
20260831154509 69 3 1.0 3.0 0.00 0.44 0.44 74 1008.0
20260831154008 69 230 2.0 2.0 0.00 0.44 0.44 74 1007.8
20260831153503 69 156 1.0 2.0 0.00 0.44 0.44 74 1008.1
20260831153000 68 182 3.0 5.0 0.00 0.44 0.44 74 1007.9
20260831152455 68 147 2.0 5.0 0.00 0.44 0.44 76 1008.1
20260831151950 68 221 1.0 1.0 0.00 0.44 0.44 79 1007.9
20260831151449 67 227 1.0 6.0 0.00 0.44 0.44 80 1007.9
20260831150944 66 264 2.0 5.0 0.00 0.44 0.44 84 1008.1
20260831150440 65 217 0.0 3.0 0.00 0.44 0.44 87 1008.0
20260831145939 64 172 1.0 2.0 0.00 0.44 0.44 90 1008.1
20260831145435 63 243 2.0 2.0 0.00 0.44 0.44 91 1007.9
20260831144931 63 201 0.0 2.0 0.00 0.44 0.44 93 1008.1
20260831144426 62 242 2.0 5.0 0.00 0.44 0.44 94 1007.9
20260831143921 63 207 0.0 1.0 0.00 0.44 0.44 95 1008.0
20260831143417 62 16 2.0 3.0 0.00 0.44 0.44 96 1008.1
20260831142912 62 229 1.0 5.0 0.00 0.44 0.44 96 1007.8
20260831142408 62 233 1.0 3.0 0.00 0.44 0.44 96 1008.0
20260831141902 62 59 1.0 2.0 0.00 0.44 0.44 96 1007.9
20260831141356 62 178 0.0 3.0 0.00 0.44 0.44 97 1008.0
20260831140851 62 217 2.0 2.0 0.00 0.44 0.44 97 1007.7
20260831140346 62 183 0.0 3.0 0.00 0.44 0.44 97 1007.8
20260831135844 62 205 3.0 5.0 0.00 0.44 0.44 97 1007.6
20260831135339 62 182 1.0 2.0 0.00 0.44 0.44 97 1007.7
20260831134835 62 198 1.0 2.0 0.00 0.44 0.44 97 1007.7
20260831134331 62 209 1.0 3.0 0.00 0.44 0.44 97 1007.5
20260831133831 62 235 1.0 1.0 0.00 0.44 0.44 97 1007.6
20260831133330 62 197 0.0 3.0 0.00 0.44 0.44 97 1007.4
20260831132825 62 275 1.0 2.0 0.00 0.44 0.44 97 1007.6
20260831132321 62 318 2.0 3.0 0.00 0.44 0.44 97 1007.4
20260831131815 62 208 1.0 2.0 0.00 0.44 0.44 97 1007.4
20260831131311 61 204 0.0 2.0 0.00 0.44 0.44 97 1007.4
20260831130806 62 208 0.0 1.0 0.00 0.44 0.44 97 1007.2
20260831130301 62 278 2.0 3.0 0.00 0.44 0.44 97 1007.2
20260831125800 62 227 1.0 1.0 0.00 0.44 0.44 97 1007.0
20260831125256 62 210 0.0 1.0 0.00 0.44 0.44 97 1007.2
20260831124750 62 214 0.0 1.0 0.00 0.44 0.44 97 1007.2
20260831124247 62 288 1.0 3.0 0.00 0.44 0.44 97 1007.2
20260831123746 62 211 1.0 1.0 0.00 0.44 0.44 97 1007.0
20260831123245 62 200 1.0 1.0 0.00 0.44 0.44 97 1006.9
20260831122739 62 155 0.0 5.0 0.00 0.44 0.44 97 1007.2
20260831122235 62 215 0.0 2.0 0.00 0.44 0.44 97 1006.9
20260831121734 62 271 2.0 2.0 0.00 0.44 0.44 97 1006.9
20260831121231 62 215 0.0 0.0 0.00 0.44 0.44 97 1006.8
20260831120726 62 230 1.0 2.0 0.00 0.44 0.44 97 1006.9
20260831120221 62 227 0.0 3.0 0.00 0.44 0.44 97 1007.0
20260831115717 62 217 0.0 1.0 0.00 0.44 0.44 97 1006.7
20260831115213 62 220 0.0 2.0 0.00 0.44 0.44 97 1006.7
20260831114712 63 221 0.0 1.0 0.00 0.44 0.44 97 1006.6
20260831114211 63 227 0.0 1.0 0.00 0.44 0.44 97 1006.5
20260831113707 63 218 0.0 2.0 0.00 0.44 0.44 97 1006.3
20260831113201 63 209 0.0 2.0 0.00 0.44 0.44 97 1006.2
20260831112700 63 219 0.0 2.0 0.00 0.44 0.44 97 1006.2
20260831112156 63 272 1.0 2.0 0.00 0.44 0.44 97 1005.9
20260831111651 64 223 1.0 1.0 0.00 0.44 0.44 97 1005.9
20260831111148 64 218 0.0 1.0 0.00 0.44 0.44 97 1005.9
20260831110643 64 166 1.0 3.0 0.05 0.44 0.44 97 1005.7
20260831110138 64 208 0.0 1.0 0.05 0.44 0.44 97 1005.8
20260831105637 64 255 1.0 1.0 0.00 0.43 0.43 97 1005.8
20260831105132 65 207 0.0 1.0 0.00 0.43 0.43 97 1005.9
20260831104627 65 220 0.0 1.0 0.00 0.43 0.43 97 1005.6
20260831104124 65 213 0.0 0.0 0.00 0.43 0.43 97 1005.6
20260831103619 65 214 0.0 1.0 0.00 0.43 0.43 97 1005.6
20260831103115 65 215 0.0 0.0 0.00 0.43 0.43 97 1005.5
20260831102614 65 219 1.0 1.0 0.00 0.43 0.43 97 1005.6
20260831102109 65 202 0.0 1.0 0.00 0.43 0.43 97 1005.4
20260831101609 65 206 0.0 2.0 0.00 0.43 0.43 96 1005.6
20260831101106 66 213 1.0 2.0 0.00 0.43 0.43 96 1005.7
20260831100602 66 204 1.0 2.0 0.00 0.43 0.43 96 1005.5
20260831100058 66 256 1.0 1.0 0.00 0.43 0.43 96 1005.6
20260831095555 66 231 0.0 5.0 0.00 0.43 0.43 96 1005.6
20260831095050 66 212 0.0 5.0 0.00 0.43 0.43 96 1005.5
20260831094546 67 178 1.0 3.0 0.00 0.43 0.43 96 1005.3
20260831094042 67 232 0.0 2.0 0.00 0.43 0.43 96 1005.5
20260831093537 67 258 2.0 2.0 0.00 0.43 0.43 96 1005.3
20260831093033 67 234 1.0 3.0 0.07 0.43 0.43 96 1005.6
20260831092529 67 214 0.0 0.0 0.14 0.43 0.43 96 1005.5
20260831092025 67 213 0.0 0.0 0.07 0.42 0.42 96 1005.4
20260831091524 67 211 0.0 0.0 0.00 0.41 0.41 96 1005.4
20260831091020 67 208 0.0 0.0 0.00 0.41 0.41 96 1005.4
20260831090515 67 211 0.0 0.0 0.00 0.41 0.41 96 1005.3
20260831090011 67 213 0.0 0.0 0.00 0.41 0.41 96 1005.3
20260831085506 67 216 0.0 0.0 0.00 0.41 0.41 96 1005.3
20260831085001 67 198 0.0 0.0 0.00 0.41 0.41 96 1005.3
20260831084457 67 213 0.0 0.0 0.00 0.41 0.41 96 1005.2
20260831083954 67 213 0.0 0.0 0.00 0.41 0.41 96 1005.5
20260831083453 67 208 0.0 0.0 0.00 0.41 0.41 96 1005.4
20260831082948 67 212 0.0 0.0 0.00 0.41 0.41 96 1005.4
20260831082448 67 200 0.0 0.0 0.00 0.41 0.41 96 1005.1
20260831081942 67 195 0.0 2.0 0.00 0.41 0.41 96 1005.4
20260831081438 67 211 0.0 1.0 0.05 0.41 0.41 96 1005.3
20260831080935 67 195 0.0 1.0 0.05 0.41 0.41 96 1005.5
20260831080434 67 215 0.0 1.0 0.00 0.40 0.40 96 1005.6
20260831075930 67 222 0.0 1.0 0.00 0.40 0.40 96 1005.6
20260831075426 67 200 0.0 1.0 0.00 0.40 0.40 95 1005.5
20260831074921 67 213 0.0 2.0 0.00 0.40 0.40 95 1005.6
20260831074420 67 205 0.0 1.0 0.00 0.40 0.40 95 1005.5
20260831073915 67 192 0.0 0.0 0.00 0.40 0.40 95 1005.5
20260831073415 67 221 0.0 2.0 0.07 0.40 0.40 95 1004.8
20260831072909 67 211 0.0 2.0 0.12 0.40 0.40 95 1004.2
20260831072405 67 197 0.0 5.0 0.24 0.39 0.39 95 1003.7
20260831071901 67 71 1.0 5.0 0.42 0.38 0.38 95 1003.0
20260831071400 67 201 0.0 1.0 0.42 0.35 0.35 95 1004.1
20260831070855 67 215 0.0 0.0 0.31 0.31 0.31 95 1004.8
20260831070354 67 215 0.0 0.0 0.24 0.28 0.28 94 1005.2
20260831065853 67 209 0.0 0.0 0.28 0.26 0.26 94 1005.2
20260831065351 67 208 0.0 1.0 0.28 0.24 0.24 94 1005.5
20260831064846 67 208 0.0 0.0 0.19 0.21 0.21 94 1005.9
20260831064342 67 214 0.0 0.0 0.19 0.19 0.19 94 1006.0
20260831063838 67 230 0.0 1.0 0.24 0.18 0.18 94 1006.2
20260831063333 67 212 0.0 0.0 0.24 0.16 0.16 93 1006.3
20260831062832 68 168 0.0 1.0 0.19 0.14 0.14 93 1006.3
20260831062328 68 208 0.0 1.0 0.07 0.12 0.12 93 1006.3
20260831061826 68 203 0.0 1.0 0.00 0.11 0.11 93 1006.5
20260831061326 68 206 1.0 2.0 0.12 0.11 0.11 92 1006.3
20260831060822 68 196 2.0 2.0 0.24 0.11 0.11 92 1006.3
20260831060321 68 212 0.0 1.0 0.24 0.09 0.09 92 1006.5
20260831055821 68 232 0.0 2.0 0.12 0.07 0.07 91 1006.4
20260831055317 68 194 0.0 1.0 0.07 0.05 0.05 90 1006.5
20260831054812 69 205 2.0 2.0 0.12 0.05 0.05 90 1006.0
20260831054307 69 174 2.0 3.0 0.12 0.04 0.04 89 1006.0
20260831053806 70 181 0.0 5.0 0.12 0.03 0.03 87 1005.7
20260831053305 70 206 2.0 7.0 0.12 0.02 0.02 86 1005.7
20260831052759 70 183 1.0 3.0 0.07 0.01 0.01 84 1005.8
20260831052258 70 179 1.0 3.0 0.00 0.00 0.00 84 1005.8
20260831051757 70 189 1.0 3.0 0.00 0.00 0.00 85 1005.9
20260831051256 70 158 1.0 2.0 0.00 0.00 0.00 85 1005.9
20260831050750 70 212 1.0 2.0 0.00 0.00 0.00 85 1005.9
20260831050249 70 194 2.0 3.0 0.00 0.00 0.00 85 1006.1
20260831045744 70 110 3.0 6.0 0.00 0.00 0.00 86 1005.9